Location: Mountain Grove
(34.0887°N, 86.6172°W)
Time: 21:05:57
(UTC+00:00)

ATLAS 5 CENTAUR R/B - Pass Details

Date: 14 July 2020
Orbit: 534 x 1124 km, 63.4° (Epoch: 03 August)

Event Time Altitude Azimuth Distance (km) Brightness Sun altitude
Rises 10:08:53 0° 317° (NW) 3,493 5.3 -7.5°
Reaches altitude 10° 10:11:29 10° 308° (NW) 2,639 4.6 -7.0°
Maximum altitude 10:17:02 34° 246° (WSW) 1,609 3.2 -6.0°
Drops below altitude 10° 10:23:10 10° 185° (S) 2,920 4.7 -5.0°
Sets 10:26:11 0° 176° (S) 3,915 5.4 -4.4°
